EZY26HM EDDH-EGKK

Flight info

Callsign EZY26HM
Flight time 1h 17m
Altitude 38000
Route WSN5G/33 WSN N125 ONTAZ DCT GALSO Q63 ARREK Y4 TEBRA TEBRA2G EGKK
Aircraft A319/M-SDE3FGHIRWY/LB1

Departure

Time 2026-05-07 19:37
Airport Hamburg Helmut Schmidt Airport (EDDH)

Arrival

Time 2026-05-07 20:54
Airport London Gatwick Airport (EGKK)
Time Latitude Longitude Altitude Speed Heading
2026-05-07 18:47 53.62942 10.00288 49 ft 0 kts 122°
2026-05-07 19:28 53.62946 10.00277 48 ft 2 kts 122°
2026-05-07 19:29 53.62957 10.00249 46 ft 3 kts 123°
2026-05-07 19:29 53.62968 10.00221 46 ft 3 kts 126°
2026-05-07 19:29 53.62981 10.00197 48 ft 3 kts 155°
2026-05-07 19:29 53.62999 10.00190 47 ft 2 kts 202°
2026-05-07 19:30 53.63005 10.00194 46 ft 0 kts 212°
2026-05-07 19:32 53.63002 10.00191 46 ft 0 kts 212°
2026-05-07 19:33 53.62997 10.00186 47 ft 2 kts 212°
2026-05-07 19:33 53.62969 10.00155 48 ft 7 kts 212°
2026-05-07 19:33 53.62912 10.00095 48 ft 11 kts 212°
2026-05-07 19:33 53.62862 10.00035 48 ft 5 kts 223°
2026-05-07 19:34 53.62846 9.99965 47 ft 9 kts 245°
2026-05-07 19:34 53.62809 9.99830 42 ft 16 kts 261°
2026-05-07 19:34 53.62855 9.99753 43 ft 0 kts 335°
2026-05-07 19:36 53.62857 9.99752 44 ft 1 kts 335°
2026-05-07 19:36 53.63002 9.99630 45 ft 62 kts 333°
2026-05-07 19:36 53.63609 9.99106 46 ft 131 kts 333°
2026-05-07 19:36 53.64569 9.98275 242 ft 166 kts 335°
2026-05-07 19:37 53.65593 9.97405 990 ft 165 kts 336°
2026-05-07 19:37 53.66643 9.96520 1562 ft 176 kts 339°
2026-05-07 19:37 53.67807 9.95581 1976 ft 196 kts 338°
2026-05-07 19:37 53.69110 9.94522 2343 ft 221 kts 337°
2026-05-07 19:38 53.70487 9.93258 3162 ft 229 kts 326°
2026-05-07 19:38 53.71430 9.91118 4071 ft 233 kts 289°
2026-05-07 19:38 53.71590 9.89274 4399 ft 250 kts 266°
2026-05-07 19:38 53.71047 9.85273 5254 ft 272 kts 250°
2026-05-07 19:39 53.70381 9.82260 6229 ft 276 kts 248°
2026-05-07 19:39 53.69667 9.79222 7182 ft 280 kts 248°
2026-05-07 19:39 53.68957 9.76135 8123 ft 284 kts 249°
2026-05-07 19:39 53.68498 9.74063 8761 ft 285 kts 250°
2026-05-07 19:40 53.67824 9.70897 9679 ft 290 kts 250°
2026-05-07 19:40 53.67162 9.67665 10022 ft 291 kts 251°
2026-05-07 19:40 53.66515 9.64405 10118 ft 303 kts 251°
2026-05-07 19:40 53.65831 9.60924 10138 ft 318 kts 251°
2026-05-07 19:41 53.64922 9.57395 10558 ft 328 kts 239°
2026-05-07 19:41 53.63649 9.54229 11528 ft 327 kts 234°
2026-05-07 19:41 53.62333 9.51143 12400 ft 329 kts 234°
2026-05-07 19:41 53.60993 9.47996 13254 ft 332 kts 234°
2026-05-07 19:42 53.59635 9.44818 14064 ft 336 kts 234°
2026-05-07 19:42 53.58261 9.41617 14788 ft 339 kts 234°
2026-05-07 19:42 53.56866 9.38383 15495 ft 343 kts 234°
2026-05-07 19:42 53.55459 9.35127 16192 ft 346 kts 234°
2026-05-07 19:43 53.54037 9.31831 16889 ft 350 kts 234°
2026-05-07 19:43 53.52599 9.28501 17581 ft 354 kts 234°
2026-05-07 19:43 53.51143 9.25133 18284 ft 357 kts 234°
2026-05-07 19:43 53.49676 9.21748 18893 ft 361 kts 234°
2026-05-07 19:44 53.48193 9.18331 19501 ft 364 kts 234°
2026-05-07 19:44 53.46696 9.14886 20118 ft 367 kts 234°
2026-05-07 19:44 53.45186 9.11419 20734 ft 370 kts 234°
2026-05-07 19:44 53.43662 9.07925 21338 ft 373 kts 234°
2026-05-07 19:45 53.42147 9.04450 21935 ft 376 kts 234°
2026-05-07 19:45 53.40599 9.00897 22536 ft 379 kts 234°
2026-05-07 19:45 53.39023 8.97290 23128 ft 382 kts 234°
2026-05-07 19:45 53.37454 8.93712 23701 ft 386 kts 234°
2026-05-07 19:46 53.35861 8.90076 24191 ft 389 kts 235°
2026-05-07 19:46 53.34486 8.86171 24670 ft 391 kts 245°
2026-05-07 19:46 53.33486 8.81926 25157 ft 393 kts 250°
2026-05-07 19:46 53.32545 8.77614 25636 ft 396 kts 250°
2026-05-07 19:47 53.31589 8.73283 26102 ft 398 kts 250°
2026-05-07 19:47 53.30623 8.68927 26555 ft 401 kts 250°
2026-05-07 19:47 53.29648 8.64538 27009 ft 404 kts 250°
2026-05-07 19:47 53.28673 8.60123 27420 ft 408 kts 250°
2026-05-07 19:48 53.27685 8.55633 27658 ft 415 kts 250°
2026-05-07 19:48 53.26702 8.51144 28041 ft 419 kts 250°
2026-05-07 19:48 53.25728 8.46544 28450 ft 421 kts 251°
2026-05-07 19:48 53.24819 8.41875 28868 ft 424 kts 252°
2026-05-07 19:49 53.23951 8.37162 29274 ft 427 kts 253°
2026-05-07 19:49 53.23091 8.32406 29678 ft 429 kts 253°
2026-05-07 19:49 53.22224 8.27626 30070 ft 432 kts 253°
2026-05-07 19:49 53.21336 8.22824 30412 ft 434 kts 252°
2026-05-07 19:50 53.20430 8.18014 30724 ft 436 kts 252°
2026-05-07 19:50 53.19507 8.13178 31036 ft 439 kts 252°
2026-05-07 19:50 53.18576 8.08323 31338 ft 441 kts 252°
2026-05-07 19:50 53.17643 8.03437 31632 ft 443 kts 252°
2026-05-07 19:51 53.16724 7.98599 32004 ft 443 kts 252°
2026-05-07 19:51 53.15801 7.93711 32431 ft 442 kts 252°
2026-05-07 19:51 53.14792 7.88876 32847 ft 442 kts 246°
2026-05-07 19:51 53.13554 7.84194 33246 ft 441 kts 245°
2026-05-07 19:52 53.12297 7.79538 33664 ft 440 kts 245°
2026-05-07 19:52 53.11031 7.74907 34077 ft 440 kts 245°
2026-05-07 19:52 53.09759 7.70278 34447 ft 439 kts 245°
2026-05-07 19:52 53.08487 7.65663 34799 ft 438 kts 245°
2026-05-07 19:53 53.07219 7.61061 35139 ft 438 kts 245°
2026-05-07 19:53 53.05950 7.56458 35467 ft 437 kts 245°
2026-05-07 19:53 53.04687 7.51866 35786 ft 436 kts 245°
2026-05-07 19:53 53.03427 7.47290 36092 ft 436 kts 245°
2026-05-07 19:54 53.02164 7.42711 36395 ft 435 kts 245°
2026-05-07 19:54 53.00903 7.38150 36691 ft 434 kts 245°
2026-05-07 19:54 52.99643 7.33596 36970 ft 434 kts 245°
2026-05-07 19:54 52.98379 7.29056 37243 ft 433 kts 245°
2026-05-07 19:55 52.97112 7.24519 37521 ft 433 kts 245°
2026-05-07 19:55 52.95848 7.19991 37775 ft 432 kts 245°
2026-05-07 19:55 52.94585 7.15467 38015 ft 432 kts 245°
2026-05-07 19:55 52.93321 7.10938 38109 ft 433 kts 245°
2026-05-07 19:56 52.90784 7.01914 38114 ft 432 kts 244°
2026-05-07 19:56 52.88245 6.92916 38112 ft 431 kts 244°
2026-05-07 19:57 52.85702 6.83922 38111 ft 431 kts 244°
2026-05-07 19:57 52.83151 6.74940 38110 ft 431 kts 244°
2026-05-07 19:58 52.80607 6.66038 38111 ft 431 kts 244°
2026-05-07 19:58 52.78038 6.57084 38115 ft 431 kts 244°
2026-05-07 19:59 52.75482 6.48178 38105 ft 430 kts 244°
2026-05-07 19:59 52.72911 6.39254 38105 ft 431 kts 244°
2026-05-07 20:00 52.70339 6.30397 38105 ft 431 kts 244°
2026-05-07 20:00 52.67745 6.21493 38103 ft 431 kts 244°
2026-05-07 20:01 52.65156 6.12580 38099 ft 431 kts 244°
2026-05-07 20:01 52.62553 6.03684 38104 ft 432 kts 244°
2026-05-07 20:02 52.59934 5.94793 38108 ft 432 kts 244°
2026-05-07 20:02 52.57310 5.85914 38114 ft 432 kts 244°
2026-05-07 20:03 52.54698 5.77096 38119 ft 432 kts 244°
2026-05-07 20:03 52.52061 5.68225 38124 ft 432 kts 244°
2026-05-07 20:04 52.49422 5.59369 38129 ft 432 kts 243°
2026-05-07 20:04 52.46774 5.50530 38127 ft 432 kts 243°
2026-05-07 20:05 52.44143 5.41751 38130 ft 432 kts 243°
2026-05-07 20:05 52.41531 5.33101 38133 ft 431 kts 243°
2026-05-07 20:06 52.38863 5.24297 38122 ft 431 kts 243°
2026-05-07 20:06 52.36209 5.15566 38116 ft 431 kts 243°
2026-05-07 20:07 52.33533 5.06785 38123 ft 431 kts 243°
2026-05-07 20:07 52.30848 4.98022 38130 ft 431 kts 243°
2026-05-07 20:08 52.28155 4.89281 38133 ft 431 kts 243°
2026-05-07 20:08 52.25462 4.80539 38132 ft 431 kts 243°
2026-05-07 20:09 52.22784 4.71868 38129 ft 431 kts 243°
2026-05-07 20:10 52.18720 4.58808 38123 ft 431 kts 243°
2026-05-07 20:10 52.16007 4.50114 38102 ft 431 kts 243°
2026-05-07 20:11 52.13291 4.41428 38102 ft 430 kts 243°
2026-05-07 20:11 52.10565 4.32760 38108 ft 430 kts 243°
2026-05-07 20:12 52.07830 4.24104 38108 ft 430 kts 243°
2026-05-07 20:12 52.05090 4.15460 38109 ft 430 kts 242°
2026-05-07 20:13 52.02359 4.06892 38110 ft 430 kts 242°
2026-05-07 20:13 51.99609 3.98272 38109 ft 430 kts 242°
2026-05-07 20:14 51.96858 3.89666 38111 ft 430 kts 242°
2026-05-07 20:14 51.94101 3.81068 38110 ft 430 kts 242°
2026-05-07 20:15 51.91339 3.72480 38108 ft 429 kts 242°
2026-05-07 20:15 51.88575 3.63916 38105 ft 429 kts 242°
2026-05-07 20:16 51.85796 3.55361 38110 ft 429 kts 242°
2026-05-07 20:16 51.83013 3.46835 38108 ft 429 kts 242°
2026-05-07 20:17 51.80245 3.38372 38114 ft 429 kts 242°
2026-05-07 20:17 51.77458 3.29872 38114 ft 428 kts 242°
2026-05-07 20:18 51.74658 3.21377 37535 ft 432 kts 243°
2026-05-07 20:18 51.73508 3.16873 36687 ft 435 kts 253°
2026-05-07 20:18 51.72842 3.12100 35877 ft 437 kts 262°
2026-05-07 20:18 51.72435 3.07222 34987 ft 441 kts 262°
2026-05-07 20:19 51.72020 3.02322 34358 ft 439 kts 262°
2026-05-07 20:19 51.71598 2.97455 33639 ft 437 kts 262°
2026-05-07 20:19 51.71182 2.92694 33039 ft 432 kts 262°
2026-05-07 20:19 51.70762 2.87936 32466 ft 426 kts 262°
2026-05-07 20:20 51.70345 2.83256 32131 ft 415 kts 262°
2026-05-07 20:20 51.69940 2.78718 32081 ft 404 kts 261°
2026-05-07 20:20 51.69539 2.74254 32095 ft 402 kts 261°
2026-05-07 20:21 51.68739 2.65364 32099 ft 400 kts 262°
2026-05-07 20:21 51.67941 2.56495 32100 ft 400 kts 261°
2026-05-07 20:22 51.67140 2.47627 32099 ft 400 kts 261°
2026-05-07 20:22 51.66336 2.38769 32095 ft 400 kts 261°
2026-05-07 20:23 51.65519 2.29909 31911 ft 399 kts 261°
2026-05-07 20:23 51.65119 2.25582 31425 ft 394 kts 261°
2026-05-07 20:23 51.64713 2.21237 30931 ft 390 kts 261°
2026-05-07 20:23 51.64310 2.16936 30422 ft 387 kts 261°
2026-05-07 20:24 51.63908 2.12670 30014 ft 385 kts 261°
2026-05-07 20:24 51.63505 2.08433 29395 ft 380 kts 261°
2026-05-07 20:24 51.63109 2.04242 28653 ft 377 kts 261°
2026-05-07 20:24 51.62717 2.00027 27357 ft 387 kts 261°
2026-05-07 20:25 51.62328 1.95740 26544 ft 386 kts 261°
2026-05-07 20:25 51.61942 1.91479 25698 ft 385 kts 261°
2026-05-07 20:25 51.61504 1.87240 24905 ft 383 kts 256°
2026-05-07 20:25 51.60578 1.83249 24207 ft 381 kts 243°
2026-05-07 20:26 51.59111 1.79733 23523 ft 379 kts 230°
2026-05-07 20:26 51.57365 1.76573 22736 ft 377 kts 229°
2026-05-07 20:26 51.55602 1.73382 21573 ft 385 kts 229°
2026-05-07 20:26 51.53829 1.70167 20634 ft 385 kts 229°
2026-05-07 20:27 51.52060 1.66955 19936 ft 383 kts 229°
2026-05-07 20:27 51.50328 1.63807 19261 ft 379 kts 229°
2026-05-07 20:27 51.48819 1.60373 18587 ft 376 kts 242°
2026-05-07 20:27 51.47822 1.56527 17858 ft 372 kts 250°
2026-05-07 20:28 51.46937 1.52644 16994 ft 371 kts 249°
2026-05-07 20:28 51.46039 1.48736 16079 ft 374 kts 249°
2026-05-07 20:28 51.45139 1.44842 15273 ft 372 kts 249°
2026-05-07 20:28 51.44219 1.40957 14485 ft 370 kts 245°
2026-05-07 20:29 51.42914 1.37523 14221 ft 352 kts 230°
2026-05-07 20:29 51.41208 1.34873 14081 ft 333 kts 217°
2026-05-07 20:29 51.39399 1.32723 14088 ft 319 kts 216°
2026-05-07 20:29 51.37627 1.30618 14094 ft 316 kts 216°
2026-05-07 20:30 51.35865 1.28524 14095 ft 315 kts 216°
2026-05-07 20:30 51.34106 1.26436 14093 ft 315 kts 216°
2026-05-07 20:30 51.32367 1.24375 14096 ft 315 kts 216°
2026-05-07 20:30 51.30611 1.22294 14094 ft 315 kts 217°
2026-05-07 20:31 51.28851 1.20210 14094 ft 315 kts 216°
2026-05-07 20:31 51.27087 1.18138 14093 ft 315 kts 216°
2026-05-07 20:31 51.25324 1.16067 14092 ft 315 kts 216°
2026-05-07 20:31 51.23559 1.13990 14091 ft 315 kts 216°
2026-05-07 20:32 51.21774 1.11969 14090 ft 315 kts 210°
2026-05-07 20:32 51.19774 1.10545 14090 ft 315 kts 202°
2026-05-07 20:32 51.17736 1.09260 14089 ft 315 kts 201°
2026-05-07 20:32 51.15692 1.07986 14085 ft 315 kts 201°
2026-05-07 20:33 51.13648 1.06718 14085 ft 315 kts 201°
2026-05-07 20:33 51.11602 1.05452 14088 ft 315 kts 201°
2026-05-07 20:33 51.09561 1.04192 14086 ft 315 kts 201°
2026-05-07 20:33 51.07515 1.02931 14084 ft 315 kts 201°
2026-05-07 20:34 51.05473 1.01659 14085 ft 315 kts 204°
2026-05-07 20:34 51.03631 0.99793 13926 ft 315 kts 223°
2026-05-07 20:34 51.02349 0.97006 13658 ft 314 kts 244°
2026-05-07 20:34 51.01619 0.93787 13399 ft 314 kts 251°
2026-05-07 20:35 51.00934 0.90499 13131 ft 313 kts 251°
2026-05-07 20:35 51.00250 0.87224 12870 ft 312 kts 251°
2026-05-07 20:35 50.99564 0.83969 12604 ft 311 kts 250°
2026-05-07 20:35 50.98879 0.80724 12340 ft 309 kts 251°
2026-05-07 20:36 50.98195 0.77497 12088 ft 308 kts 251°
2026-05-07 20:36 50.97512 0.74285 11830 ft 307 kts 251°
2026-05-07 20:36 50.96829 0.71085 11577 ft 306 kts 251°
2026-05-07 20:36 50.96153 0.67924 11301 ft 300 kts 251°
2026-05-07 20:37 50.95486 0.64813 10928 ft 297 kts 251°
2026-05-07 20:37 50.94833 0.61756 10553 ft 296 kts 251°
2026-05-07 20:37 50.94175 0.58683 10227 ft 292 kts 251°
2026-05-07 20:37 50.93533 0.55687 10013 ft 284 kts 251°
2026-05-07 20:38 50.92902 0.52749 9731 ft 280 kts 251°
2026-05-07 20:38 50.92276 0.49834 9432 ft 279 kts 251°
2026-05-07 20:38 50.91688 0.46918 9063 ft 277 kts 257°
2026-05-07 20:38 50.91512 0.43890 8687 ft 276 kts 272°
2026-05-07 20:39 50.91678 0.41895 8430 ft 276 kts 282°
2026-05-07 20:39 50.91802 0.41131 8329 ft 276 kts 285°
2026-05-07 20:39 50.92115 0.39403 8115 ft 276 kts 285°
2026-05-07 20:39 50.92649 0.36502 7981 ft 274 kts 285°
2026-05-07 20:40 50.93184 0.33596 7998 ft 274 kts 285°
2026-05-07 20:40 50.93677 0.30800 7991 ft 258 kts 281°
2026-05-07 20:40 50.93842 0.28060 7999 ft 244 kts 272°
2026-05-07 20:40 50.93867 0.27152 8002 ft 243 kts 272°
2026-05-07 20:41 50.93925 0.24681 8007 ft 242 kts 271°
2026-05-07 20:41 50.93982 0.22018 8013 ft 242 kts 271°
2026-05-07 20:41 50.94038 0.19355 8019 ft 242 kts 271°
2026-05-07 20:41 50.94093 0.16694 8026 ft 241 kts 271°
2026-05-07 20:42 50.94147 0.14044 7845 ft 239 kts 271°
2026-05-07 20:42 50.94199 0.11413 7483 ft 239 kts 271°
2026-05-07 20:42 50.94250 0.08788 7157 ft 237 kts 271°
2026-05-07 20:42 50.94299 0.06221 7077 ft 237 kts 271°
2026-05-07 20:43 50.94347 0.03598 7082 ft 239 kts 271°
2026-05-07 20:43 50.94395 0.00971 7084 ft 239 kts 271°
2026-05-07 20:43 50.94443 -0.01664 7080 ft 239 kts 271°
2026-05-07 20:43 50.94492 -0.04292 7082 ft 239 kts 271°
2026-05-07 20:44 50.94539 -0.06928 7083 ft 239 kts 271°
2026-05-07 20:44 50.94585 -0.09548 7084 ft 239 kts 271°
2026-05-07 20:44 50.94632 -0.12180 7084 ft 239 kts 271°
2026-05-07 20:44 50.94678 -0.14811 7064 ft 238 kts 271°
2026-05-07 20:45 50.94722 -0.17369 6751 ft 237 kts 271°
2026-05-07 20:45 50.94765 -0.19979 6381 ft 237 kts 271°
2026-05-07 20:45 50.94806 -0.22589 5995 ft 237 kts 272°
2026-05-07 20:45 50.95124 -0.25108 5610 ft 237 kts 289°
2026-05-07 20:46 50.95694 -0.27569 5232 ft 238 kts 291°
2026-05-07 20:46 50.96284 -0.30009 4988 ft 237 kts 291°
2026-05-07 20:46 50.96880 -0.32459 4801 ft 238 kts 291°
2026-05-07 20:46 50.97476 -0.34904 4621 ft 238 kts 291°
2026-05-07 20:47 50.98012 -0.37102 4454 ft 238 kts 291°
2026-05-07 20:47 50.98622 -0.39605 4271 ft 238 kts 291°
2026-05-07 20:47 50.99435 -0.41847 4077 ft 233 kts 316°
2026-05-07 20:47 51.00773 -0.43156 3899 ft 222 kts 338°
2026-05-07 20:48 51.02185 -0.44047 3712 ft 215 kts 341°
2026-05-07 20:48 51.03561 -0.44872 3535 ft 208 kts 341°
2026-05-07 20:48 51.04881 -0.45656 3365 ft 203 kts 341°
2026-05-07 20:48 51.06176 -0.46431 3229 ft 196 kts 341°
2026-05-07 20:49 51.07440 -0.47088 3054 ft 192 kts 354°
2026-05-07 20:49 51.08702 -0.46625 3002 ft 185 kts 36°
2026-05-07 20:49 51.09632 -0.45242 3011 ft 179 kts 48°
2026-05-07 20:49 51.10539 -0.43976 3002 ft 169 kts 41°
2026-05-07 20:50 51.11358 -0.42684 2946 ft 164 kts 59°
2026-05-07 20:50 51.11753 -0.41012 2808 ft 161 kts 79°
2026-05-07 20:50 51.11996 -0.39272 2605 ft 160 kts 79°
2026-05-07 20:50 51.12238 -0.37545 2403 ft 160 kts 79°
2026-05-07 20:51 51.12476 -0.35844 2189 ft 159 kts 79°
2026-05-07 20:51 51.12716 -0.34127 1971 ft 159 kts 79°
2026-05-07 20:51 51.12956 -0.32409 1763 ft 159 kts 79°
2026-05-07 20:51 51.13195 -0.30697 1539 ft 158 kts 79°
2026-05-07 20:52 51.13432 -0.28998 1316 ft 154 kts 79°
2026-05-07 20:52 51.13654 -0.27380 1076 ft 147 kts 79°
2026-05-07 20:52 51.13876 -0.25798 774 ft 146 kts 79°
2026-05-07 20:52 51.14090 -0.24258 633 ft 141 kts 78°
2026-05-07 20:53 51.14306 -0.22734 481 ft 141 kts 78°
2026-05-07 20:53 51.14514 -0.21234 353 ft 141 kts 79°
2026-05-07 20:53 51.14720 -0.19732 211 ft 131 kts 79°
2026-05-07 20:53 51.14888 -0.18521 214 ft 88 kts 77°
2026-05-07 20:54 51.14995 -0.17936 211 ft 36 kts 55°
2026-05-07 20:54 51.15101 -0.17761 211 ft 13 kts 13°
2026-05-07 20:54 51.15161 -0.17770 211 ft 0 kts 352°
2026-05-07 20:54 51.15163 -0.17771 211 ft 1 kts 353°
2026-05-07 20:55 51.15174 -0.17773 214 ft 2 kts 353°
2026-05-07 20:55 51.15196 -0.17777 205 ft 5 kts 352°
2026-05-07 20:55 51.15228 -0.17784 210 ft 9 kts 355°
2026-05-07 20:55 51.15266 -0.17711 208 ft 10 kts 77°
2026-05-07 20:56 51.15287 -0.17560 205 ft 12 kts 78°
2026-05-07 20:56 51.15302 -0.17424 205 ft 12 kts 76°
2026-05-07 20:56 51.15366 -0.17379 209 ft 11 kts 350°
2026-05-07 20:56 51.15419 -0.17398 208 ft 12 kts 347°
2026-05-07 20:57 51.15504 -0.17427 214 ft 13 kts 347°
2026-05-07 20:57 51.15594 -0.17459 205 ft 14 kts 348°
2026-05-07 20:57 51.15675 -0.17487 205 ft 6 kts 348°
2026-05-07 20:57 51.15720 -0.17502 211 ft 8 kts 348°
2026-05-07 20:58 51.15750 -0.17595 208 ft 9 kts 257°
2026-05-07 20:58 51.15742 -0.17661 205 ft 9 kts 263°
2026-05-07 20:58 51.15782 -0.17723 205 ft 6 kts 345°
2026-05-07 20:58 51.15815 -0.17735 208 ft 3 kts 347°
2026-05-07 20:59 51.15824 -0.17738 205 ft 1 kts 347°
2026-05-07 20:59 51.15828 -0.17740 205 ft 0 kts 347°